| time (UTC) | temp F | wind direction | speed knots | gust knots | rain 1hr in | rain 24hr in | rain mn in | humidity % | barometer mb |
| 20260504211510 | 63 | 203 | 0.9 | 6.1 | 0.00 | 0.04 | 0.04 | 50 | 1005.2 |
| 20260504210019 | 63 | 359 | 1.7 | 6.1 | 0.00 | 0.04 | 0.04 | 49 | 1005.1 |
| 20260504204516 | 63 | 34 | 0.9 | 3.5 | 0.00 | 0.04 | 0.04 | 51 | 1005.2 |
| 20260504203010 | 63 | 209 | 3.5 | 6.1 | 0.00 | 0.04 | 0.04 | 49 | 1005.1 |
| 20260504201507 | 62 | 4 | 1.7 | 13.0 | 0.00 | 0.04 | 0.04 | 50 | 1005.1 |
| 20260504200012 | 62 | 55 | 3.5 | 11.3 | 0.00 | 0.04 | 0.04 | 51 | 1005.2 |
| 20260504194516 | 62 | 237 | 1.7 | 7.0 | 0.00 | 0.04 | 0.04 | 53 | 1005.3 |
| 20260504193021 | 62 | 145 | 1.7 | 7.0 | 0.00 | 0.04 | 0.04 | 53 | 1005.6 |
| 20260504191507 | 62 | 359 | 3.5 | 9.6 | 0.00 | 0.04 | 0.04 | 54 | 1005.4 |
| 20260504190008 | 62 | 7 | 3.5 | 6.1 | 0.00 | 0.04 | 0.04 | 59 | 1005.4 |
| 20260504184513 | 61 | 201 | 1.7 | 7.0 | 0.00 | 0.04 | 0.04 | 60 | 1005.4 |
| 20260504183020 | 59 | 34 | 2.6 | 7.0 | 0.00 | 0.04 | 0.04 | 67 | 1005.6 |
| 20260504181522 | 56 | 226 | 1.7 | 4.3 | 0.00 | 0.04 | 0.04 | 73 | 1005.7 |
| 20260504180007 | 55 | 34 | 0.9 | 4.3 | 0.01 | 0.04 | 0.04 | 74 | 1005.7 |
| 20260504174513 | 54 | 72 | 0.9 | 6.1 | 0.02 | 0.04 | 0.04 | 78 | 1006.1 |
| 20260504173020 | 52 | 314 | 1.7 | 6.1 | 0.03 | 0.04 | 0.04 | 85 | 1006.1 |
| 20260504171524 | 51 | 41 | 0.9 | 3.5 | 0.04 | 0.04 | 0.04 | 82 | 1006.3 |
| 20260504081520 | 34 | 259 | 0.0 | 1.7 | 0.00 | 0.00 | 0.00 | 80 | 1007.4 |
| 20260504050012 | 32 | 264 | 0.0 | 1.7 | 0.00 | 0.00 | 0.00 | 85 | 1007.2 |
| 20260504044511 | 33 | 264 | 0.0 | 1.7 | 0.00 | 0.00 | 0.00 | 84 | 1007.2 |
| 20260504043011 | 34 | 264 | 0.0 | 0.0 | 0.00 | 0.00 | 0.00 | 82 | 1007.3 |
| 20260504041507 | 34 | 264 | 0.0 | 1.7 | 0.00 | 0.00 | 0.00 | 82 | 1007.3 |
| 20260504040014 | 34 | 264 | 0.0 | 1.7 | 0.00 | 0.00 | 0.00 | 82 | 1007.2 |
| 20260504034504 | 35 | 264 | 0.0 | 1.7 | 0.00 | 0.00 | 0.00 | 80 | 1007.0 |
| 20260504033011 | 35 | 264 | 0.0 | 1.7 | 0.00 | 0.00 | 0.00 | 79 | 1007.0 |
| 20260504031504 | 35 | 264 | 0.0 | 1.7 | 0.00 | 0.00 | 0.00 | 77 | 1007.0 |
| 20260504030016 | 36 | 264 | 0.0 | 1.7 | 0.00 | 0.00 | 0.00 | 76 | 1006.9 |
| 20260504024506 | 36 | 264 | 0.0 | 1.7 | 0.00 | 0.00 | 0.00 | 74 | 1006.9 |
| 20260504023012 | 37 | 264 | 0.0 | 1.7 | 0.00 | 0.00 | 0.00 | 73 | 1006.8 |
| 20260504021506 | 37 | 264 | 0.0 | 1.7 | 0.00 | 0.00 | 0.00 | 72 | 1006.8 |
| 20260504020016 | 38 | 264 | 0.0 | 1.7 | 0.00 | 0.00 | 0.00 | 70 | 1006.9 |
| 20260504014506 | 39 | 264 | 0.0 | 1.7 | 0.00 | 0.01 | 0.00 | 69 | 1006.8 |
| 20260504013017 | 40 | 264 | 0.0 | 1.7 | 0.00 | 0.01 | 0.00 | 66 | 1006.7 |
| 20260504011515 | 41 | 264 | 0.0 | 1.7 | 0.00 | 0.01 | 0.00 | 62 | 1006.7 |
| 20260504010012 | 42 | 224 | 0.0 | 1.7 | 0.00 | 0.01 | 0.00 | 60 | 1006.6 |
| 20260504004508 | 43 | 174 | 0.0 | 1.7 | 0.00 | 0.01 | 0.00 | 57 | 1006.2 |
| 20260504003008 | 44 | 186 | 0.0 | 1.7 | 0.00 | 0.01 | 0.00 | 56 | 1005.9 |
| 20260504001510 | 45 | 359 | 0.0 | 2.6 | 0.00 | 0.01 | 0.00 | 53 | 1005.7 |
| 20260504000008 | 46 | 4 | 0.0 | 3.5 | 0.00 | 0.01 | 0.00 | 51 | 1005.6 |
| 20260503234509 | 46 | 124 | 0.9 | 6.1 | 0.00 | 0.02 | 0.00 | 47 | 1005.3 |
| 20260503233015 | 47 | 349 | 3.5 | 8.7 | 0.00 | 0.02 | 0.00 | 45 | 1005.1 |
| 20260503231514 | 47 | 346 | 2.6 | 6.1 | 0.00 | 0.03 | 0.00 | 45 | 1004.8 |
| 20260503230016 | 48 | 108 | 0.9 | 2.6 | 0.00 | 0.03 | 0.00 | 50 | 1004.7 |
| 20260503224514 | 48 | 333 | 1.7 | 4.3 | 0.00 | 0.03 | 0.00 | 44 | 1004.6 |
| 20260503223018 | 49 | 7 | 0.9 | 9.6 | 0.00 | 0.03 | 0.00 | 42 | 1004.5 |
| 20260503221511 | 49 | 267 | 1.7 | 6.1 | 0.00 | 0.04 | 0.00 | 44 | 1004.2 |
| 20260503220017 | 50 | 312 | 2.6 | 7.0 | 0.00 | 0.04 | 0.00 | 42 | 1004.0 |
| 20260503214521 | 50 | 6 | 4.3 | 10.4 | 0.00 | 0.04 | 0.00 | 40 | 1003.9 |
| 20260503213014 | 50 | 116 | 2.6 | 10.4 | 0.00 | 0.04 | 0.00 | 43 | 1003.7 |